This is the latest recevied weather packets stored in our database for station/object KE8WMS. If no packets are shown the sender has not sent any weather packets the latest 1 day(s).
| Time | Temp. | Humidity | Pressure | Rain* | Wind** | Luminosity | Snow |
|---|---|---|---|---|---|---|---|
| 1777986136 | 17.22° C | 74% | 1001.8 hPa | 0 mm | 1.34 m/s, 211° | 113 W/m² | - |
| 1777985832 | 17.22° C | 74% | 1001.9 hPa | 0 mm | 1.79 m/s, 251° | 110 W/m² | - |
| 1777985530 | 17.22° C | 73% | 1001.9 hPa | 0 mm | 1.34 m/s, 222° | 112 W/m² | - |
| 1777985226 | 17.22° C | 73% | 1001.8 hPa | 0 mm | 2.68 m/s, 160° | 101 W/m² | - |
| 1777984923 | 16.67° C | 73% | 1001.6 hPa | 0 mm | 2.68 m/s, 216° | 80 W/m² | - |
| 1777984619 | 16.67° C | 73% | 1001.7 hPa | 0 mm | 1.34 m/s, 209° | 63 W/m² | - |
| 1777984316 | 16.67° C | 72% | 1001.4 hPa | 0 mm | 1.79 m/s, 228° | 54 W/m² | - |
| 1777984012 | 16.67° C | 73% | 1001.6 hPa | 0 mm | 0.45 m/s, 213° | 47 W/m² | - |
| 1777983709 | 16.67° C | 72% | 1001.7 hPa | 0 mm | 2.24 m/s, 152° | 40 W/m² | - |
| 1777983406 | 16.67° C | 72% | 1001.6 hPa | 0 mm | 2.24 m/s, 211° | 41 W/m² | - |
| 1777983103 | 16.67° C | 72% | 1001.3 hPa | 0 mm | 1.34 m/s, 207° | 40 W/m² | - |
| 1777982799 | 16.67° C | 72% | 1001.1 hPa | 0 mm | 0.89 m/s, 204° | 40 W/m² | - |
| 1777982495 | 16.67° C | 72% | 1000.9 hPa | 0 mm | 0.45 m/s, 176° | 45 W/m² | - |
| 1777982189 | 16.67° C | 72% | 1000.6 hPa | 0 mm | 1.34 m/s, 167° | 48 W/m² | - |
| 1777981887 | 16.67° C | 72% | 1000.3 hPa | 0 mm | 0.89 m/s, 207° | 47 W/m² | - |
| 1777981584 | 17.22° C | 71% | 1000.5 hPa | 0 mm | 0.89 m/s, 199° | 43 W/m² | - |
| 1777981280 | 17.22° C | 71% | 1000 hPa | 0 mm | 1.34 m/s, 186° | 36 W/m² | - |
| 1777980977 | 17.22° C | 69% | 1000.4 hPa | 0 mm | 2.68 m/s, 245° | 32 W/m² | - |
| 1777980674 | 17.22° C | 69% | 1000.3 hPa | 0 mm | 1.79 m/s, 236° | 30 W/m² | - |
| 1777980370 | 17.22° C | 69% | 1000.4 hPa | 0 mm | 1.34 m/s, 226° | 29 W/m² | - |
| 1777980069 | 17.22° C | 69% | 1000.2 hPa | 0 mm | 1.34 m/s, 219° | 28 W/m² | - |
| 1777979768 | 17.22° C | 69% | 1000.1 hPa | 0 mm | 2.24 m/s, 164° | 26 W/m² | - |
| 1777979463 | 17.22° C | 69% | 1000.2 hPa | 0 mm | 0.89 m/s, 217° | 23 W/m² | - |
| 1777979160 | 17.78° C | 68% | 1000.1 hPa | 0 mm | 0.89 m/s, 213° | 20 W/m² | - |
| 1777978857 | 17.78° C | 69% | 1000.1 hPa | 0 mm | 1.34 m/s, 228° | 16 W/m² | - |
* Rain latest hour (hover to see other rain measurements)
** Current wind speed in m/s (hover to see current wind gust speed)